Location: Cahas Mountain Overlook
(37.0833°N, 80.1000°W)
Time: 02:03:35
(UTC-05:00)

Courier 1B - All Passes

Search period start: 07 December 2023 00:00
Search period end: 17 December 2023 00:00
Orbit: 962 x 1208 km, 28.3° (Epoch: 06 December)

Date Brightness Start Highest point End Pass type
(mag) Time Alt. Az. Time Alt. Az. Time Alt. Az.
07 Dec - 07:42:11 10° SSW 07:47:33 23° SSE 07:52:42 10° ESE daylight
07 Dec - 09:34:44 10° WSW 09:40:58 37° S 09:46:56 10° ESE daylight
07 Dec - 11:28:26 10° WSW 11:34:27 36° S 11:40:18 10° ESE daylight
07 Dec - 13:22:59 10° WSW 13:27:43 21° SSW 13:32:26 10° SSE daylight
08 Dec - 06:49:02 10° SSW 06:53:53 19° SSE 06:58:34 10° ESE visible
08 Dec - 08:41:02 10° SW 08:47:17 35° S 08:53:14 10° ESE daylight
08 Dec - 10:34:34 10° WSW 10:40:48 39° S 10:46:46 10° ESE daylight
08 Dec - 12:28:51 10° WSW 12:34:08 26° SSW 12:39:20 10° SE daylight
09 Dec - 05:56:12 10° S 06:00:12 15° SSE 06:04:06 10° ESE visible
09 Dec - 07:47:23 10° SW 07:53:35 31° SSE 07:59:29 10° ESE daylight
09 Dec - 09:40:42 10° WSW 09:47:07 40° S 09:53:12 10° ESE daylight
09 Dec - 11:34:48 10° WSW 11:40:33 30° SSW 11:46:06 10° SE daylight
09 Dec - 13:30:35 10° SW 13:33:40 14° SSW 13:36:43 10° S daylight
10 Dec - 05:04:09 10° S 05:06:31 12° SSE 05:08:52 10° SE visible
10 Dec - 06:53:50 10° SW 06:59:53 28° SSE 07:05:37 10° ESE visible
10 Dec - 08:46:51 10° WSW 08:53:25 40° S 08:59:36 10° ESE daylight
10 Dec - 10:40:49 10° WSW 10:46:54 35° S 10:52:46 10° SE daylight
10 Dec - 12:35:51 10° WSW 12:40:07 18° SSW 12:44:20 10° SSE daylight
11 Dec - 06:00:26 10° SSW 06:06:09 24° SSE 06:11:38 10° ESE visible
11 Dec - 07:53:02 10° WSW 07:59:40 38° S 08:05:56 10° ESE daylight
11 Dec - 09:46:51 10° WSW 09:53:15 38° S 09:59:19 10° ESE daylight
11 Dec - 11:41:28 10° WSW 11:46:34 23° SSW 11:51:30 10° SSE daylight
12 Dec - 05:07:16 10° SSW 05:12:25 20° SSE 05:17:25 10° ESE visible
12 Dec - 06:59:16 10° SW 07:05:55 36° S 07:12:13 10° ESE daylight
12 Dec - 08:52:53 10° WSW 08:59:32 41° S 09:05:48 10° ESE daylight
12 Dec - 10:47:16 10° WSW 10:52:58 28° SSW 10:58:25 10° SE daylight
12 Dec - 12:44:33 10° SW 12:46:01 11° SSW 12:47:29 10° SSW daylight
13 Dec - 04:14:28 10° S 04:18:42 16° SSE 04:22:49 10° ESE visible
13 Dec - 06:05:35 10° SW 06:12:09 32° SSE 06:18:23 10° ESE visible
13 Dec - 07:58:56 10° WSW 08:05:47 42° S 08:12:13 10° ESE daylight
13 Dec - 09:53:09 10° WSW 09:59:19 33° SSW 10:05:11 10° SE daylight
13 Dec - 11:48:49 10° WSW 11:52:29 15° SSW 11:56:04 10° S daylight
14 Dec - 03:22:30 10° S 03:24:58 12° SSE 03:27:25 10° SE visible
14 Dec - 05:12:02 10° SW 05:18:21 28° SSE 05:24:27 10° ESE visible
14 Dec - 07:05:02 10° WSW 07:11:59 41° S 07:18:34 10° ESE daylight
14 Dec - 08:59:04 10° WSW 09:05:38 37° S 09:11:49 10° SE daylight
14 Dec - 10:54:06 10° WSW 10:58:55 20° SSW 11:03:33 10° SSE daylight
15 Dec - 04:18:39 10° SSW 04:24:35 24° SSE 04:30:21 10° ESE visible
15 Dec - 06:11:11 10° WSW 06:18:11 39° S 06:24:50 10° ESE visible
15 Dec - 08:05:02 10° WSW 08:11:52 40° S 08:18:20 10° ESE daylight
15 Dec - 09:59:42 10° WSW 10:05:18 25° SSW 10:10:40 10° SSE daylight
16 Dec - 03:25:33 10° SSW 03:30:49 20° SSE 03:36:00 10° ESE visible
16 Dec - 05:17:25 10° SW 05:24:21 36° SSE 05:31:01 10° ESE visible
16 Dec - 07:11:02 10° WSW 07:18:05 43° S 07:24:46 10° ESE daylight
16 Dec - 09:05:27 10° WSW 09:11:38 30° SSW 09:17:32 10° SE daylight
16 Dec - 11:02:02 10° SW 11:04:46 13° SSW 11:07:27 10° S daylight
